This is the latest recevied weather packets stored in our database for station/object DF1GD-10. If no packets are shown the sender has not sent any weather packets the latest 10 day(s).
| Time | Temp. | Humidity | Pressure | Rain* | Wind** | Luminosity | Snow |
|---|---|---|---|---|---|---|---|
| 1788508713 | 18.89° C | 42% | 1018.4 hPa | - | - | - | - |
| 1788507813 | 18.89° C | 42% | 1018.6 hPa | - | - | - | - |
| 1788506913 | 18.33° C | 44% | 1018.5 hPa | - | - | - | - |
| 1788506013 | 17.78° C | 46% | 1018.7 hPa | - | - | - | - |
| 1788505138 | 17.22° C | 48% | 1018.8 hPa | - | - | - | - |
| 1788504213 | 16.67° C | 49% | 1019 hPa | - | - | - | - |
| 1788503312 | 16.11° C | 50% | 1019 hPa | - | - | - | - |
| 1788502412 | 16.11° C | 52% | 1018.9 hPa | - | - | - | - |
| 1788501512 | 15.56° C | 53% | 1018.9 hPa | - | - | - | - |
| 1788500612 | 15° C | 54% | 1019 hPa | - | - | - | - |
| 1788499712 | 14.44° C | 56% | 1019 hPa | - | - | - | - |
| 1788498812 | 14.44° C | 57% | 1019 hPa | - | - | - | - |
| 1788497912 | 14.44° C | 56% | 1019 hPa | - | - | - | - |
| 1788497011 | 15° C | 55% | 1019.1 hPa | - | - | - | - |
| 1788496111 | 15° C | 55% | 1019.3 hPa | - | - | - | - |
| 1788495211 | 15° C | 55% | 1019.2 hPa | - | - | - | - |
| 1788494311 | 15° C | 55% | 1019.2 hPa | - | - | - | - |
| 1788493411 | 15° C | 55% | 1019.3 hPa | - | - | - | - |
| 1788492511 | 15.56° C | 53% | 1019.4 hPa | - | - | - | - |
| 1788491611 | 15.56° C | 54% | 1019.5 hPa | - | - | - | - |
| 1788490711 | 15.56° C | 53% | 1019.7 hPa | - | - | - | - |
| 1788489810 | 16.11° C | 52% | 1019.7 hPa | - | - | - | - |
| 1788488910 | 16.11° C | 53% | 1020.1 hPa | - | - | - | - |
| 1788488010 | 16.11° C | 53% | 1020.1 hPa | - | - | - | - |
| 1788487110 | 16.11° C | 52% | 1020.1 hPa | - | - | - | - |
* Rain since midnight (hover to see other rain measurements)
** Current wind speed in m/s (hover to see current wind gust speed)